EW0538 Weather Reports


Display with metric or nautical units.
time (UTC)temp
F
wind
direction
speed
MPH
gust
MPH
rain 1hr
in
rain 24hr
in
rain mn
in
humidity
%
barometer
mb
20260831212235 61 156 3.0 12.0 0.06 0.30 0.05 83 1016.6
20260831210125 65 115 1.0 4.0 0.00 0.28 0.03 79 1015.7
20260831205119 66 160 0.0 2.0 0.00 0.28 0.03 81 1015.4
20260831201801 71 355 2.0 12.0 0.00 0.26 0.01 57 1015.0
20260831200801 73 316 3.0 12.0 0.00 0.25 0.00 51 1014.8
20260831195756 74 27 3.0 10.0 0.00 0.25 0.00 51 1014.6
20260831193640 73 39 2.0 7.0 0.00 0.25 0.00 50 1014.8
20260831192642 74 22 0.0 2.0 0.00 0.25 0.00 51 1015.0
20260831191621 73 346 0.0 4.0 0.00 0.25 0.00 50 1015.1
20260831190548 72 15 0.0 2.0 0.00 0.25 0.00 52 1015.4
20260831185545 72 262 0.0 0.0 0.00 0.27 0.00 55 1015.5
20260831184552 70 333 0.0 0.0 0.00 0.32 0.00 55 1015.8
20260831183539 69 343 0.0 1.0 0.00 0.32 0.00 58 1016.2
20260831182513 69 342 0.0 2.0 0.00 0.34 0.00 58 1016.4
20260831181505 68 314 0.0 0.0 0.00 0.39 0.00 62 1016.8
20260831180433 68 96 0.0 0.0 0.00 0.39 0.00 64 1016.9
20260831175435 67 100 0.0 0.0 0.00 0.39 0.00 64 1017.1
20260831174416 65 336 0.0 0.0 0.00 0.39 0.00 67 1017.4
20260831173429 65 20 0.0 1.0 0.00 0.39 0.00 68 1017.4
20260831172452 65 148 0.0 0.0 0.00 0.39 0.00 69 1017.6
20260831171456 64 274 0.0 0.0 0.00 0.39 0.00 69 1017.7
20260831170442 63 323 0.0 0.0 0.00 0.39 0.00 71 1017.9
20260831165437 61 323 0.0 0.0 0.00 0.39 0.00 73 1018.0
20260831164422 62 15 0.0 1.0 0.00 0.39 0.00 72 1018.1
20260831163358 61 6 0.0 1.0 0.00 0.39 0.00 74 1017.9
20260831162353 62 71 0.0 0.0 0.00 0.39 0.00 77 1018.1
20260831161342 61 134 0.0 0.0 0.00 0.39 0.00 76 1017.9
20260831160359 60 123 0.0 0.0 0.00 0.39 0.00 80 1017.7
20260831155349 59 8 0.0 0.0 0.00 0.39 0.00 83 1017.6
20260831154349 58 8 0.0 0.0 0.00 0.39 0.00 84 1017.7
20260831152215 56 8 0.0 0.0 0.00 0.39 0.00 90 1017.9
20260831151146 56 8 0.0 1.0 0.00 0.39 0.00 93 1018.2
20260831150133 55 11 0.0 1.0 0.00 0.39 0.00 95 1018.2
20260831145132 55 70 0.0 0.0 0.00 0.39 0.00 97 1018.3
20260831144140 53 22 0.0 0.0 0.00 0.39 0.00 97 1018.4
20260831142015 51 67 0.0 0.0 0.00 0.39 0.00 98 1018.5
20260831134842 49 136 0.0 0.0 0.00 0.39 0.00 98 1018.3
20260831133832 48 137 0.0 0.0 0.00 0.39 0.00 98 1018.3
20260831132828 48 136 0.0 0.0 0.00 0.39 0.00 98 1018.3
20260831130730 48 137 0.0 0.0 0.00 0.39 0.00 97 1017.8
20260831125744 47 137 0.0 0.0 0.00 0.39 0.00 97 1017.6
20260831124716 47 137 0.0 0.0 0.00 0.39 0.00 97 1017.5
20260831123732 47 136 0.0 0.0 0.00 0.39 0.00 97 1017.5
20260831122709 47 136 0.0 0.0 0.00 0.39 0.00 97 1017.5
20260831120602 47 136 0.0 0.0 0.00 0.39 0.00 97 1017.6
20260831115556 47 136 0.0 0.0 0.00 0.39 0.00 97 1017.5
20260831114600 47 137 0.0 0.0 0.00 0.39 0.00 97 1017.5
20260831113619 48 137 0.0 0.0 0.00 0.39 0.00 97 1017.4
20260831112548 48 136 0.0 0.0 0.00 0.39 0.00 97 1017.3
20260831111548 48 136 0.0 0.0 0.00 0.39 0.00 97 1017.1
20260831110548 48 136 0.0 0.0 0.00 0.39 0.00 97 1017.0
20260831105605 48 137 0.0 0.0 0.00 0.39 0.00 97 1016.9
20260831104622 48 137 0.0 0.0 0.00 0.39 0.00 97 1017.1
20260831103631 48 137 0.0 0.0 0.00 0.39 0.00 97 1017.0
20260831102620 48 136 0.0 0.0 0.00 0.39 0.00 97 1016.9
20260831100511 49 137 0.0 0.0 0.00 0.39 0.00 97 1016.8
20260831093239 50 136 0.0 0.0 0.00 0.39 0.00 97 1016.8
20260831092231 50 137 0.0 0.0 0.00 0.39 0.00 97 1016.8
20260831091211 50 137 0.0 0.0 0.00 0.39 0.00 97 1016.9
20260831090713 49 136 0.0 0.0 0.00 0.39 0.00 97 1016.9
20260831085724 49 137 0.0 0.0 0.00 0.39 0.00 97 1016.8
20260831084657 48 137 0.0 0.0 0.00 0.39 0.00 97 1016.9
20260831083625 48 137 0.0 0.0 0.00 0.39 0.00 97 1016.8
20260831081519 48 137 0.0 0.0 0.00 0.39 0.00 97 1016.9
20260831080537 48 137 0.0 0.0 0.00 0.39 0.00 96 1016.8
20260831075551 49 137 0.0 0.0 0.00 0.39 0.00 96 1016.8
20260831074531 49 137 0.0 0.0 0.00 0.39 0.00 96 1016.9
20260831073515 49 137 0.0 0.0 0.00 0.39 0.00 96 1016.7
20260831072509 50 136 0.0 0.0 0.00 0.39 0.00 96 1016.7
20260831071530 50 136 0.0 0.0 0.00 0.39 0.00 96 1016.8
20260831070550 50 137 0.0 0.0 0.00 0.39 0.00 96 1016.9
20260831065610 50 137 0.0 0.0 0.00 0.39 0.00 96 1016.9
20260831064633 50 137 0.0 0.0 0.00 0.39 0.00 96 1017.0
20260831063624 51 137 0.0 0.0 0.00 0.39 0.00 96 1016.9
20260831062613 51 136 0.0 0.0 0.00 0.39 0.00 96 1016.8
20260831061623 51 137 0.0 0.0 0.00 0.39 0.00 96 1016.7
20260831060548 51 127 0.0 0.0 0.00 0.39 0.00 96 1016.9
20260831055534 51 127 0.0 0.0 0.00 0.39 0.40 96 1016.9
20260831054542 52 127 0.0 0.0 0.00 0.39 0.40 95 1016.9
20260831053547 52 127 0.0 0.0 0.00 0.39 0.40 96 1016.8
20260831052521 52 127 0.0 0.0 0.00 0.39 0.40 96 1016.9
20260831050332 53 127 0.0 0.0 0.00 0.39 0.40 95 1016.7
20260831045306 53 127 0.0 0.0 0.00 0.39 0.40 95 1016.8
20260831044325 53 127 0.0 0.0 0.00 0.39 0.40 95 1016.7
20260831043346 54 127 0.0 0.0 0.00 0.39 0.40 95 1016.8
20260831042356 54 127 0.0 0.0 0.00 0.39 0.40 94 1017.0
20260831035105 54 145 0.0 0.0 0.00 0.39 0.40 94 1017.3
20260831034112 54 112 0.0 0.0 0.00 0.39 0.40 93 1017.1
20260831033050 54 117 0.0 0.0 0.00 0.39 0.40 94 1017.2
20260831031008 54 130 0.0 0.0 0.00 0.39 0.40 93 1017.1
20260831030006 54 226 0.0 0.0 0.04 0.39 0.40 92 1016.7
20260831025018 55 229 1.0 11.0 0.09 0.39 0.40 92 1016.3
20260831024019 55 358 2.0 6.0 0.21 0.38 0.38 92 1014.1
20260831023038 56 347 0.0 3.0 0.43 0.33 0.34 90 1017.0
20260831022027 57 328 3.0 0.0 0.31 0.29 0.28 88 1017.1
20260831021037 58 44 1.0 9.0 0.23 0.24 0.24 88 1016.3
20260831020028 59 354 0.0 0.0 0.20 0.19 0.20 91 1015.4
20260831015026 59 354 0.0 0.0 0.12 0.16 0.17 90 1014.3
20260831014006 60 352 0.0 0.0 0.00 0.14 0.15 89 1013.6
20260831013022 60 352 0.0 0.0 0.00 0.13 0.13 89 1013.2
20260831012025 59 290 0.0 0.0 0.00 0.13 0.13 90 1012.8
20260831005913 60 356 0.0 0.0 0.00 0.13 0.13 88 1012.4
20260831004841 60 357 0.0 0.0 0.00 0.13 0.13 88 1012.7
20260831003848 60 356 0.0 0.0 0.00 0.13 0.13 87 1012.8
20260831002851 61 94 0.0 2.0 0.00 0.13 0.13 86 1012.9
20260831001850 61 265 0.0 0.0 0.00 0.13 0.13 84 1013.2
20260831000827 61 266 0.0 0.0 0.00 0.13 0.13 82 1013.1
20260830235838 61 266 0.0 0.0 0.00 0.13 0.13 81 1012.9
20260830234847 62 256 0.0 0.0 0.00 0.13 0.13 82 1012.8
20260830233858 62 14 0.0 0.0 0.00 0.13 0.13 80 1012.4
20260830232840 63 122 0.0 0.0 0.00 0.13 0.13 76 1013.1
20260830230715 65 319 0.0 0.0 0.00 0.13 0.13 69 1013.1
20260830225722 65 319 0.0 0.0 0.00 0.13 0.13 68 1013.2
20260830224724 66 351 0.0 0.0 0.00 0.13 0.13 67 1013.2
20260830223732 66 28 0.0 0.0 0.00 0.13 0.13 67 1013.1
20260830222728 66 4 0.0 1.0 0.00 0.13 0.13 63 1013.2
20260830221707 67 6 0.0 2.0 0.00 0.13 0.13 62 1013.4
20260830220641 67 121 0.0 0.0 0.00 0.13 0.13 63 1013.4